Topeka, KS

9:54 PM CDT on August 26, 2016 (GMT -0500)
Forbes

Weather History for KFOE - January, 2013

Change the Weather History Date:

Tuesday, January 22, 2013

  Actual Average Record
Temperature  
Mean Temperature 22 °F -  
Max Temperature 33 °F 43 °F 71 °F (1967)
Min Temperature 12 °F 20 °F -5 °F (1959)
Degree Days  
Heating Degree Days 42    
Moisture  
Dew Point 8 °F    
Average Humidity 58    
Maximum Humidity 71    
Minimum Humidity 38    
Precipitation  
Precipitation 0.00 in - - ()
Sea Level Pressure  
Sea Level Pressure 30.34 in    
Wind  
Wind Speed 6 mph (East)    
Max Wind Speed 10 mph    
Max Gust Speed -    
Visibility 10 miles    
Events      
Averages and records for this station are not official NWS values.
T = Trace of Precipitation, MM = Missing Value Source: NWS Daily Summary

Daily Weather History Graph

Daily Weather History Graph

Search for Another Location

Airport or City:

Trip Planner

Search our weather history database for the weather conditions in past years. The results will help you decide how hot, cold, wet, or windy it might be!

Date:

Astronomy

Jan. 22, 2013 Rise Set
Actual Time 7:36 AM CST 5:32 PM CST
Civil Twilight 7:07 AM CST 6:01 PM CST
Nautical Twilight 6:35 AM CST 6:34 PM CST
Astronomical Twilight 6:03 AM CST 7:05 PM CST
Moon 1:56 PM CST (1/22) 3:58 AM CST (1/22)
Length of Visible Light 10h 54m
Length of Day
9h 56m
Waxing Gibbous, 83% of the Moon is Illuminated
Jan 22
Waxing Gibbous
Jan 26
Full
Feb 3
Last Quarter
Feb 10
New
Feb 17
First Quarter

Hourly Weather History & Observations

Time (CST) Temp. Windchill Dew Point Humidity Pressure Visibility Wind Dir Wind Speed Gust Speed Precip Events Conditions
12:53 AM 15.1 °F 7.7 °F 6.1 °F 68% 30.39 in 10.0 mi NE 4.6 mph - N/A   Clear
1:53 AM 16.0 °F 8.8 °F 7.0 °F 68% 30.39 in 10.0 mi NE 4.6 mph - N/A   Clear
2:53 AM 16.0 °F 7.4 °F 8.1 °F 71% 30.40 in 10.0 mi NE 5.8 mph - N/A   Clear
3:53 AM 16.0 °F 8.8 °F 6.1 °F 65% 30.38 in 10.0 mi ENE 4.6 mph - N/A   Clear
4:53 AM 15.1 °F 4.2 °F 5.0 °F 64% 30.38 in 10.0 mi ENE 8.1 mph - N/A   Clear
5:53 AM 14.0 °F 6.5 °F 6.1 °F 71% 30.37 in 10.0 mi East 4.6 mph - N/A   Clear
6:53 AM 12.9 °F 5.2 °F 5.0 °F 71% 30.37 in 10.0 mi ENE 4.6 mph - N/A   Clear
7:53 AM 12.9 °F 3.8 °F 3.0 °F 65% 30.40 in 10.0 mi ENE 5.8 mph - N/A   Clear
8:53 AM 16.0 °F 5.3 °F 3.9 °F 59% 30.41 in 10.0 mi East 8.1 mph - N/A   Clear
9:53 AM 19.0 °F 7.5 °F 5.0 °F 54% 30.41 in 10.0 mi East 10.4 mph - N/A   Clear
10:53 AM 21.9 °F 11.7 °F 6.1 °F 51% 30.42 in 10.0 mi ESE 9.2 mph - N/A   Clear
11:53 AM 25.0 °F 14.8 °F 8.1 °F 49% 30.39 in 10.0 mi ESE 10.4 mph - N/A   Clear
12:53 PM 27.0 °F 17.3 °F 8.1 °F 45% 30.34 in 10.0 mi ESE 10.4 mph - N/A   Clear
1:53 PM 30.0 °F 23.2 °F 9.0 °F 41% 30.30 in 10.0 mi Variable 6.9 mph - N/A   Clear
2:53 PM 33.1 °F 26.9 °F 10.9 °F 40% 30.27 in 10.0 mi SE 6.9 mph - N/A   Clear
3:53 PM 33.1 °F 28.7 °F 10.0 °F 38% 30.28 in 10.0 mi Variable 4.6 mph - N/A   Clear
4:53 PM 32.0 °F 27.5 °F 10.9 °F 42% 30.28 in 10.0 mi SE 4.6 mph - N/A   Clear
5:53 PM 28.0 °F 24.2 °F 10.9 °F 49% 30.29 in 10.0 mi ESE 3.5 mph - N/A   Clear
6:53 PM 25.0 °F 19.3 °F 10.9 °F 55% 30.30 in 10.0 mi East 4.6 mph - N/A   Clear
7:53 PM 24.1 °F 16.0 °F 10.9 °F 57% 30.30 in 10.0 mi East 6.9 mph - N/A   Clear
8:53 PM 23.0 °F 17.0 °F 10.9 °F 60% 30.30 in 10.0 mi East 4.6 mph - N/A   Clear
9:53 PM 21.9 °F - 10.9 °F 63% 30.31 in 10.0 mi Calm Calm - N/A   Clear
10:53 PM 19.0 °F 13.9 °F 10.9 °F 71% 30.30 in 10.0 mi ESE 3.5 mph - N/A   Clear
11:53 PM 19.0 °F 11.1 °F 10.0 °F 68% 30.30 in 10.0 mi SSE 5.8 mph - N/A   Clear